FENGYUN 2G

Last updated on Nov. 29, 2020, 6:16 a.m. UTC

1 40367U 14090A   20333.52616591 -.00000286  00000-0  00000+0 0  9996
2 40367   2.4710  92.3595 0002677 268.6942 356.1298  1.00274981 21715
UTC
Height (km)
Latitude
Longitude
Inclination
Orbital Period
UTC large
Height (km)
Speed (km/s)
/
Latitude / Longitude
Inclination (degrees)
Orbital Period (minutes)
Azimuth
Elevation
Range (km)
Doppler Factor
iOS Compass Heading
iOS Angle

Next 30 passes for location: Hong Kong

Rise time Rise Azimuth (degrees) Set time Set Azimuth (degrees) Duration Max altitude (degrees)

No matching passes for this satellites